This is the latest recevied weather packets stored in our database for station/object EW2310. If no packets are shown the sender has not sent any weather packets the latest 10 day(s).
| Time | Temp. | Humidity | Pressure | Rain* | Wind** | Luminosity | Snow |
|---|---|---|---|---|---|---|---|
| 1777898146 | 18.89° C | 67% | 1017.6 hPa | 0 mm | - | 397 W/m² | - |
| 1777897846 | 18.89° C | 65% | 1017.5 hPa | 0 mm | - | 348 W/m² | - |
| 1777896043 | 18.89° C | 63% | 1017.8 hPa | 0 mm | - | 578 W/m² | - |
| 1777893343 | 19.44° C | 62% | 1018 hPa | 0 mm | - | 504 W/m² | - |
| 1777891843 | 18.89° C | 62% | 1018.2 hPa | 0 mm | - | 519 W/m² | - |
| 1777890943 | 19.44° C | 62% | 1018.2 hPa | 0 mm | - | 446 W/m² | - |
| 1777888843 | 20° C | 59% | 1018.3 hPa | 0 mm | - | 589 W/m² | - |
| 1777886743 | 19.44° C | 59% | 1018.4 hPa | 0 mm | - | 916 W/m² | - |
| 1777884043 | 18.89° C | 65% | 1018.6 hPa | 0 mm | - | 612 W/m² | - |
| 1777883146 | 18.33° C | 68% | 1018.5 hPa | 0 mm | - | 536 W/m² | - |
| 1777881943 | 17.78° C | 69% | 1018.7 hPa | 0 mm | - | 501 W/m² | - |
| 1777879843 | 17.22° C | 71% | 1018.5 hPa | 0 mm | - | 605 W/m² | - |
| 1777879243 | 17.22° C | 73% | 1018.5 hPa | 0 mm | - | 510 W/m² | - |
| 1777878946 | 17.22° C | 74% | 1018.4 hPa | 0 mm | - | 415 W/m² | - |
| 1777878046 | 16.67° C | 77% | 1018.2 hPa | 0 mm | - | 427 W/m² | - |
| 1777875343 | 15.56° C | 79% | 1018 hPa | 0 mm | - | 258 W/m² | - |
| 1777874743 | 15° C | 79% | 1017.9 hPa | 0 mm | - | 294 W/m² | - |
| 1777873543 | 15° C | 79% | 1017.8 hPa | 0 mm | - | 172 W/m² | - |
| 1777873243 | 15° C | 79% | 1017.8 hPa | 0 mm | - | 135 W/m² | - |
| 1777871443 | 14.44° C | 78% | 1017.5 hPa | 0 mm | - | 121 W/m² | - |
| 1777870546 | 13.89° C | 78% | 1017.6 hPa | 0 mm | - | 105 W/m² | - |
| 1777869943 | 13.33° C | 80% | 1017.6 hPa | 0 mm | - | 90 W/m² | - |
| 1777868743 | 12.22° C | 81% | 1017.4 hPa | 0 mm | - | 44 W/m² | - |
| 1777868443 | 12.22° C | 81% | 1017.4 hPa | 0 mm | - | 33 W/m² | - |
| 1777867543 | 12.22° C | 80% | 1017.4 hPa | 0 mm | - | 12 W/m² | - |
* Rain latest hour (hover to see other rain measurements)
** Current wind speed in m/s (hover to see current wind gust speed)